Regional Weather Roundup
Issued by NWS Green Bay, WI

Home | Current Version | Previous Version | Graphics & Text | Print | Product List | Glossary Off
Versions: 1 2 3 4 5 6 7 8 9 10 11 12 13 14 15 16 17 18 19 20 21 22 23 24 25 26 27 28 29 30 31 32 33 34 35 36 37 38 39 40 41 42 43 44 45 46 47 48 49 50

000
ASUS43 KGRB 240011
RWRGRB

NORTH-CENTRAL AND NORTHEAST WISCONSIN REGIONAL WEATHER ROUNDUP
NATIONAL WEATHER SERVICE GREEN BAY WI
600 PM CST TUE JAN 23 2018

WIZ005-009-010>012-018-019-240100-
NORTH CENTRAL WISCONSIN

CITY           SKY/WX    TMP DP  RH WIND       PRES   REMARKS
IRONWOOD       CLOUDY    13  11  92 CALM      30.09R
MANITOWISH WTR FLURRIES  18  16  93 N3        30.04R
ARBOR VITAE    CLOUDY    19  14  79 N5        30.04R
EAGLE RIVER    FLURRIES  17  11  80 N5        30.03R WCI   9
LAND O LAKES   FLURRIES  15  11  86 N9        30.05R WCI   3
RHINELANDER    CLOUDY    20  17  88 N6        30.03R
PHILLIPS       FLURRIES  19  16  89 NW3       30.05R
ANTIGO         MOCLDY    17  14  87 N7        30.03R WCI   8
TOMAHAWK       CLOUDY    19  16  86 NW5       30.05R
MERRILL        FLURRIES  21  17  85 N5        30.06R
$$

WIZ013-073-240100-
NORTHEAST WISCONSIN

CITY           SKY/WX    TMP DP  RH WIND       PRES   REMARKS
IRON MOUNTAIN  FAIR      18  12  77 NW9       30.01R WCI   7
MARINETTE      MOCLDY    23  18  81 N12       30.05R
OCONTO         FAIR      23  17  77 N3        30.06R
$$

WIZ017-030-035>037-045-240100-
CENTRAL WISCONSIN

CITY           SKY/WX    TMP DP  RH WIND       PRES   REMARKS
MEDFORD        CLOUDY    20  16  84 N5        30.05R
WAUSAU         CLOUDY    22  17  81 N8        30.04R
MOSINEE        CLOUDY    23  19  86 NW7       30.06R
MARSHFIELD     CLOUDY    21  16  81 NW7       30.05R
WISC RAPIDS    CLOUDY    23  17  78 NW7       30.08R
STEVENS POINT  CLOUDY    22  18  81 NW6       30.07R
WAUPACA        CLOUDY    29  20  70 W6        30.06R
SHAWANO        MOCLDY    26  19  74 CALM      30.05R
CLINTONVILLE   CLOUDY    27  18  69 N6        30.06R
WAUTOMA        NOT AVBL
$$

WIZ038-039-048-051-240100-
FOX VALLEY

CITY           SKY/WX    TMP DP  RH WIND       PRES   REMARKS
NWS GREEN BAY  CLOUDY    27  20  75 NW8       30.06R
APPLETON       CLOUDY    27  18  69 NW8       30.03R
OSHKOSH        CLOUDY    28  21  75 NW5       30.05R
FOND DU LAC    CLOUDY    28  20  71 NW6       30.06R
$$

WIZ022-050-052-240100-
EAST CENTRAL WISCONSIN

CITY           SKY/WX    TMP DP  RH WIND       PRES   REMARKS
EPHRAIM        FAIR      21  15  76 NW7       30.01R
WASHINGTON ISL FAIR      20  14  76 N14       30.01R WCI   7
STURGEON BAY   CLOUDY    23  16  74 NW15      30.04R
MANITOWOC      FAIR      25  20  81 NW7       30.05R
SHEBOYGAN      CLOUDY    28  21  75 NW8       30.04R
$$

LMZ563-521-522-541>543-240100-
LAKESHORE

STATION/POSITION TIME  TEMP    WIND        PRES    VSBY  WAVE
                       AIR SEA DIR/SP/G                  HT/PER
                 (UTC) (F)     (DEG/KT/KT) (MB)    (MI)  (FT/S)
SHEBOYGAN LKSHOR 0000   28     300/  9/ 11 1018.3R
KEWAUNEE LKSHORE 2342   26     320/  6/ 12 1016.1R
NORTHPORT PIER   0000   22     320/  8/ 15 1016.6
SISTER BAY LKSHO 2305   23     320/ 19/ 22   N/A
MENOMINEE LKSHOR 2342   24     320/ 12/ 16 1016.8R
$$




USA.gov is the U.S. government's official web portal to all federal, state and local government web resources and services.